Time,TemperatureF,DewpointF,PressureIn,WindDirection,WindDirectionDegrees,WindSpeedMPH,WindSpeedGustMPH,Humidity,HourlyPrecipIn,Conditions,Clouds,dailyrainin,SoftwareType,DateUTC
2012-12-01 00:02:00,48.1,47.0,29.38,ENE,68,0.7,2.0,96,0.00,,,0.00,WUHU216HW,2012-12-01 08:02:00,
2012-12-01 00:07:00,48.1,47.0,29.38,West,270,1.8,2.0,96,0.00,,,0.00,WUHU216HW,2012-12-01 08:07:00,
2012-12-01 00:12:00,48.1,47.0,29.38,SW,225,0.9,3.6,96,0.00,,,0.00,WUHU216HW,2012-12-01 08:12:00,
2012-12-01 00:18:00,48.1,47.0,29.38,NNW,338,0.9,3.6,96,0.00,,,0.00,WUHU216HW,2012-12-01 08:18:00,
2012-12-01 00:22:00,48.1,47.0,29.37,NE,45,0.0,2.7,96,0.00,,,0.00,WUHU216HW,2012-12-01 08:22:00,
2012-12-01 00:27:00,48.1,47.0,29.37,NE,45,1.8,2.5,96,0.00,,,0.00,WUHU216HW,2012-12-01 08:27:00,
2012-12-01 00:32:00,48.1,47.0,29.37,SW,225,0.7,2.5,96,0.00,,,0.00,WUHU216HW,2012-12-01 08:32:00,
2012-12-01 00:37:00,48.1,47.0,29.36,WNW,293,0.0,1.8,96,0.00,,,0.00,WUHU216HW,2012-12-01 08:37:00,
2012-12-01 00:42:00,48.1,47.0,29.36,SW,225,0.7,2.9,96,0.00,,,0.00,WUHU216HW,2012-12-01 08:42:00,
2012-12-01 00:47:00,48.1,47.0,29.36,SSW,203,0.4,3.1,96,0.00,,,0.00,WUHU216HW,2012-12-01 08:47:00,
2012-12-01 00:53:00,48.1,47.0,29.35,NW,315,0.0,3.1,96,0.00,,,0.00,WUHU216HW,2012-12-01 08:53:00,
2012-12-01 00:58:00,48.2,47.2,29.36,WSW,248,2.5,2.9,96,0.01,,,0.01,WUHU216HW,2012-12-01 08:58:00,
2012-12-01 01:03:00,48.2,47.2,29.36,SW,225,1.1,3.1,96,0.01,,,0.01,WUHU216HW,2012-12-01 09:03:00,
2012-12-01 01:08:00,48.2,47.2,29.36,SW,225,3.4,3.4,96,0.01,,,0.01,WUHU216HW,2012-12-01 09:08:00,
2012-12-01 01:13:00,48.2,47.2,29.36,SW,225,1.8,6.3,96,0.02,,,0.02,WUHU216HW,2012-12-01 09:13:00,
2012-12-01 01:18:00,48.4,47.4,29.36,WSW,248,1.1,6.3,96,0.03,,,0.03,WUHU216HW,2012-12-01 09:18:00,
2012-12-01 01:23:00,48.4,47.4,29.36,SW,225,4.0,8.7,96,0.04,,,0.04,WUHU216HW,2012-12-01 09:23:00,
2012-12-01 01:28:00,48.4,47.4,29.35,SW,225,1.3,8.7,96,0.05,,,0.05,WUHU216HW,2012-12-01 09:28:00,
2012-12-01 01:33:00,48.4,47.4,29.35,SSE,158,0.7,3.6,96,0.06,,,0.06,WUHU216HW,2012-12-01 09:33:00,
2012-12-01 01:38:00,48.2,47.2,29.35,SSW,203,1.6,3.4,96,0.06,,,0.06,WUHU216HW,2012-12-01 09:38:00,
2012-12-01 01:43:00,48.2,47.2,29.35,SW,225,1.6,4.0,96,0.07,,,0.07,WUHU216HW,2012-12-01 09:43:00,
2012-12-01 01:48:00,48.2,47.2,29.36,SW,225,3.8,4.7,96,0.07,,,0.07,WUHU216HW,2012-12-01 09:48:00,
2012-12-01 01:53:00,48.2,47.2,29.36,SSW,203,5.1,5.8,96,0.08,,,0.09,WUHU216HW,2012-12-01 09:53:00,
2012-12-01 01:58:00,48.2,47.2,29.35,South,180,4.3,8.1,96,0.09,,,0.10,WUHU216HW,2012-12-01 09:58:00,
2012-12-01 02:03:00,48.2,47.2,29.36,SE,135,1.8,8.1,96,0.10,,,0.11,WUHU216HW,2012-12-01 10:03:00,
2012-12-01 02:08:00,48.2,47.2,29.35,SSW,203,0.2,5.8,96,0.11,,,0.12,WUHU216HW,2012-12-01 10:08:00,
2012-12-01 02:13:00,48.2,47.2,29.35,SSW,203,1.3,5.8,96,0.11,,,0.13,WUHU216HW,2012-12-01 10:13:00,
2012-12-01 02:18:00,48.1,47.0,29.35,SW,225,2.0,4.0,96,0.11,,,0.14,WUHU216HW,2012-12-01 10:18:00,
2012-12-01 02:23:00,48.1,47.0,29.35,ESE,113,2.7,7.6,96,0.09,,,0.14,WUHU216HW,2012-12-01 10:23:00,
2012-12-01 02:28:00,48.1,47.0,29.35,WSW,248,3.4,7.6,96,0.09,,,0.15,WUHU216HW,2012-12-01 10:28:00,
2012-12-01 02:33:00,48.1,47.0,29.35,SW,225,4.0,7.6,96,0.10,,,0.16,WUHU216HW,2012-12-01 10:33:00,
2012-12-01 02:38:00,48.1,47.0,29.35,WSW,248,2.7,8.5,96,0.11,,,0.17,WUHU216HW,2012-12-01 10:38:00,
2012-12-01 02:43:00,48.1,47.0,29.36,WSW,248,3.1,8.5,96,0.11,,,0.18,WUHU216HW,2012-12-01 10:43:00,
2012-12-01 02:48:00,48.1,47.0,29.36,South,180,3.4,7.6,96,0.12,,,0.19,WUHU216HW,2012-12-01 10:48:00,
2012-12-01 02:53:00,47.9,46.8,29.36,SW,225,1.6,8.7,96,0.10,,,0.19,WUHU216HW,2012-12-01 10:53:00,
2012-12-01 02:58:00,48.1,47.0,29.36,SSW,203,5.1,8.7,96,0.09,,,0.20,WUHU216HW,2012-12-01 10:58:00,
2012-12-01 03:03:00,47.9,46.8,29.37,SW,225,3.8,8.1,96,0.10,,,0.21,WUHU216HW,2012-12-01 11:03:00,
2012-12-01 03:08:00,47.9,46.8,29.37,South,180,4.9,8.5,96,0.09,,,0.22,WUHU216HW,2012-12-01 11:08:00,
2012-12-01 03:13:00,47.9,46.8,29.37,SSW,203,2.2,8.5,96,0.10,,,0.24,WUHU216HW,2012-12-01 11:13:00,
2012-12-01 03:18:00,48.1,47.0,29.37,SE,135,4.0,8.1,96,0.11,,,0.25,WUHU216HW,2012-12-01 11:18:00,
2012-12-01 03:23:00,48.1,47.0,29.37,WSW,248,10.5,10.5,96,0.11,,,0.26,WUHU216HW,2012-12-01 11:23:00,
2012-12-01 03:28:00,48.1,47.0,29.37,SW,225,4.7,10.5,96,0.12,,,0.27,WUHU216HW,2012-12-01 11:28:00,
2012-12-01 03:33:00,48.1,47.0,29.38,South,180,7.4,11.9,96,0.11,,,0.28,WUHU216HW,2012-12-01 11:33:00,
2012-12-01 03:38:00,48.2,47.2,29.38,SSE,158,6.3,11.9,96,0.12,,,0.29,WUHU216HW,2012-12-01 11:38:00,
2012-12-01 03:43:00,48.2,47.2,29.38,SW,225,7.4,14.3,96,0.11,,,0.29,WUHU216HW,2012-12-01 11:43:00,
2012-12-01 03:48:00,48.2,47.2,29.39,SW,225,10.3,14.3,96,0.11,,,0.30,WUHU216HW,2012-12-01 11:48:00,
2012-12-01 03:53:00,48.2,47.2,29.40,SSW,203,5.1,13.6,96,0.10,,,0.30,WUHU216HW,2012-12-01 11:53:00,
2012-12-01 03:58:00,48.1,47.0,29.40,WSW,248,8.1,13.6,96,0.10,,,0.31,WUHU216HW,2012-12-01 11:58:00,
2012-12-01 04:03:00,47.9,46.8,29.40,SW,225,8.7,17.9,96,0.12,,,0.33,WUHU216HW,2012-12-01 12:03:00,
2012-12-01 04:08:00,47.7,46.6,29.41,WSW,248,4.7,20.1,96,0.11,,,0.34,WUHU216HW,2012-12-01 12:08:00,
2012-12-01 04:13:00,47.5,46.2,29.41,SW,225,6.5,20.1,95,0.11,,,0.35,WUHU216HW,2012-12-01 12:13:00,
2012-12-01 04:18:00,47.3,46.0,29.41,SSW,203,5.1,17.0,95,0.09,,,0.35,WUHU216HW,2012-12-01 12:18:00,
2012-12-01 04:23:00,47.3,46.0,29.41,SW,225,5.4,11.9,95,0.10,,,0.36,WUHU216HW,2012-12-01 12:23:00,
2012-12-01 04:28:00,47.2,45.8,29.42,WSW,248,6.3,11.9,95,0.08,,,0.36,WUHU216HW,2012-12-01 12:28:00,
2012-12-01 04:33:00,47.2,45.8,29.42,South,180,9.2,12.3,95,0.08,,,0.36,WUHU216HW,2012-12-01 12:33:00,
2012-12-01 04:38:00,47.0,45.6,29.43,South,180,2.5,12.3,95,0.07,,,0.36,WUHU216HW,2012-12-01 12:38:00,
2012-12-01 04:43:00,47.0,45.4,29.43,WSW,248,3.6,12.1,94,0.07,,,0.36,WUHU216HW,2012-12-01 12:43:00,
2012-12-01 04:48:00,46.8,45.2,29.43,SSW,203,2.5,8.7,94,0.06,,,0.36,WUHU216HW,2012-12-01 12:48:00,
2012-12-01 04:53:00,46.8,45.2,29.44,WSW,248,2.9,10.5,94,0.07,,,0.37,WUHU216HW,2012-12-01 12:53:00,
2012-12-01 04:58:00,46.8,45.2,29.44,WNW,293,3.6,10.5,94,0.05,,,0.37,WUHU216HW,2012-12-01 12:58:00,
2012-12-01 05:03:00,46.6,45.0,29.45,WSW,248,6.9,10.7,94,0.04,,,0.37,WUHU216HW,2012-12-01 13:03:00,
2012-12-01 05:08:00,46.6,45.0,29.45,WSW,248,1.6,11.9,94,0.02,,,0.37,WUHU216HW,2012-12-01 13:08:00,
2012-12-01 05:13:00,46.6,45.0,29.46,SSW,203,3.4,11.9,94,0.02,,,0.37,WUHU216HW,2012-12-01 13:13:00,
2012-12-01 05:18:00,46.4,44.8,29.46,WNW,293,3.4,10.5,94,0.02,,,0.37,WUHU216HW,2012-12-01 13:18:00,
2012-12-01 05:23:00,46.4,44.8,29.47,SW,225,5.8,11.4,94,0.01,,,0.37,WUHU216HW,2012-12-01 13:23:00,
2012-12-01 05:28:00,46.4,44.8,29.47,SSW,203,1.8,11.4,94,0.01,,,0.37,WUHU216HW,2012-12-01 13:28:00,
2012-12-01 05:33:00,46.3,44.6,29.47,South,180,2.7,8.3,94,0.01,,,0.37,WUHU216HW,2012-12-01 13:33:00,
2012-12-01 05:38:00,46.3,44.6,29.48,SW,225,1.3,10.1,94,0.01,,,0.37,WUHU216HW,2012-12-01 13:38:00,
2012-12-01 05:43:00,46.1,44.5,29.48,SW,225,3.8,10.1,94,0.01,,,0.37,WUHU216HW,2012-12-01 13:43:00,
2012-12-01 05:48:00,46.1,44.5,29.48,SSW,203,10.5,10.5,94,0.01,,,0.37,WUHU216HW,2012-12-01 13:48:00,
2012-12-01 05:53:00,46.1,44.5,29.49,SSW,203,5.8,10.5,94,0.00,,,0.37,WUHU216HW,2012-12-01 13:53:00,
2012-12-01 05:58:00,45.9,44.3,29.50,South,180,4.3,10.5,94,0.00,,,0.37,WUHU216HW,2012-12-01 13:58:00,
2012-12-01 06:03:00,45.9,44.3,29.50,SW,225,4.7,10.5,94,0.00,,,0.37,WUHU216HW,2012-12-01 14:03:00,
2012-12-01 06:08:00,45.9,44.3,29.50,SW,225,5.8,8.5,94,0.00,,,0.37,WUHU216HW,2012-12-01 14:08:00,
2012-12-01 06:13:00,45.7,44.1,29.51,SW,225,4.7,11.6,94,0.00,,,0.37,WUHU216HW,2012-12-01 14:13:00,
2012-12-01 06:18:00,45.7,44.1,29.52,SW,225,4.7,11.6,94,0.00,,,0.37,WUHU216HW,2012-12-01 14:18:00,
2012-12-01 06:23:00,45.7,44.1,29.52,WSW,248,5.4,8.5,94,0.00,,,0.37,WUHU216HW,2012-12-01 14:23:00,
2012-12-01 06:28:00,45.7,44.1,29.53,SSW,203,6.9,12.3,94,0.00,,,0.37,WUHU216HW,2012-12-01 14:28:00,
2012-12-01 06:33:00,45.7,44.1,29.53,SW,225,13.6,13.6,94,0.00,,,0.37,WUHU216HW,2012-12-01 14:33:00,
2012-12-01 06:38:00,45.9,44.3,29.53,SW,225,1.8,13.6,94,0.00,,,0.37,WUHU216HW,2012-12-01 14:38:00,
2012-12-01 06:43:00,45.9,44.3,29.53,SSE,158,8.9,11.9,94,0.00,,,0.37,WUHU216HW,2012-12-01 14:43:00,
2012-12-01 06:48:00,45.9,44.3,29.54,WSW,248,2.5,9.4,94,0.00,,,0.37,WUHU216HW,2012-12-01 14:48:00,
2012-12-01 06:53:00,45.7,44.1,29.55,WSW,248,4.7,7.2,94,0.00,,,0.37,WUHU216HW,2012-12-01 14:53:00,
2012-12-01 06:58:00,45.7,44.1,29.55,SW,225,3.6,8.5,94,0.00,,,0.37,WUHU216HW,2012-12-01 14:58:00,
2012-12-01 07:03:00,45.5,43.9,29.55,ESE,113,1.3,8.5,94,0.00,,,0.37,WUHU216HW,2012-12-01 15:03:00,
2012-12-01 07:08:00,45.5,43.9,29.55,SW,225,2.5,9.2,94,0.00,,,0.37,WUHU216HW,2012-12-01 15:08:00,
2012-12-01 07:13:00,45.5,43.9,29.56,SW,225,2.5,9.2,94,0.00,,,0.37,WUHU216HW,2012-12-01 15:13:00,
2012-12-01 07:18:00,45.5,43.9,29.56,WSW,248,5.1,7.4,94,0.00,,,0.37,WUHU216HW,2012-12-01 15:18:00,
2012-12-01 07:23:00,45.5,43.9,29.56,WSW,248,4.3,9.4,94,0.00,,,0.37,WUHU216HW,2012-12-01 15:23:00,
2012-12-01 07:28:00,45.4,43.7,29.57,SSW,203,9.2,9.8,94,0.00,,,0.37,WUHU216HW,2012-12-01 15:28:00,
2012-12-01 07:33:00,45.4,43.7,29.57,South,180,6.0,9.8,94,0.00,,,0.37,WUHU216HW,2012-12-01 15:33:00,
2012-12-01 07:38:00,45.4,43.7,29.57,WSW,248,3.4,9.6,94,0.00,,,0.37,WUHU216HW,2012-12-01 15:38:00,
2012-12-01 07:43:00,45.4,43.7,29.57,SW,225,9.6,9.6,94,0.00,,,0.37,WUHU216HW,2012-12-01 15:43:00,
2012-12-01 07:48:00,45.4,43.7,29.57,SW,225,4.0,9.6,94,0.00,,,0.37,WUHU216HW,2012-12-01 15:48:00,
2012-12-01 07:53:00,45.2,43.6,29.57,SSW,203,7.6,9.6,94,0.00,,,0.37,WUHU216HW,2012-12-01 15:53:00,
2012-12-01 07:59:00,45.2,43.6,29.57,SW,225,6.9,10.3,94,0.00,,,0.37,WUHU216HW,2012-12-01 15:59:00,
2012-12-01 08:04:00,45.2,43.6,29.57,WSW,248,11.9,11.9,94,0.00,,,0.37,WUHU216HW,2012-12-01 16:04:00,
2012-12-01 08:09:00,45.0,43.1,29.57,WSW,248,6.3,11.9,93,0.00,,,0.37,WUHU216HW,2012-12-01 16:09:00,
2012-12-01 08:14:00,45.0,43.1,29.57,WSW,248,5.6,11.9,93,0.00,,,0.37,WUHU216HW,2012-12-01 16:14:00,
2012-12-01 08:19:00,45.0,43.1,29.58,SW,225,7.6,11.4,93,0.00,,,0.37,WUHU216HW,2012-12-01 16:19:00,
2012-12-01 08:24:00,45.0,43.1,29.58,SW,225,5.6,11.4,93,0.00,,,0.37,WUHU216HW,2012-12-01 16:24:00,
2012-12-01 08:29:00,45.0,43.1,29.58,SSW,203,5.4,11.4,93,0.00,,,0.37,WUHU216HW,2012-12-01 16:29:00,
2012-12-01 08:34:00,45.2,43.3,29.58,NNW,338,6.0,7.8,93,0.00,,,0.37,WUHU216HW,2012-12-01 16:34:00,
2012-12-01 08:39:00,45.4,43.5,29.58,SSW,203,4.9,8.3,93,0.00,,,0.37,WUHU216HW,2012-12-01 16:39:00,
2012-12-01 08:44:00,45.4,43.5,29.58,West,270,2.0,13.4,93,0.00,,,0.37,WUHU216HW,2012-12-01 16:44:00,
2012-12-01 08:49:00,45.4,43.5,29.58,WSW,248,4.5,13.4,93,0.00,,,0.37,WUHU216HW,2012-12-01 16:49:00,
2012-12-01 08:54:00,45.5,43.7,29.58,SSW,203,3.4,10.1,93,0.00,,,0.37,WUHU216HW,2012-12-01 16:54:00,
2012-12-01 08:59:00,45.7,43.8,29.58,NNW,338,4.0,10.1,93,0.00,,,0.37,WUHU216HW,2012-12-01 16:59:00,
2012-12-01 09:04:00,45.7,43.8,29.59,SSE,158,1.1,5.1,93,0.00,,,0.37,WUHU216HW,2012-12-01 17:04:00,
2012-12-01 09:09:00,45.7,43.8,29.59,SSW,203,6.5,6.9,93,0.00,,,0.37,WUHU216HW,2012-12-01 17:09:00,
2012-12-01 09:14:00,45.9,44.3,29.59,NW,315,1.1,6.9,94,0.00,,,0.37,WUHU216HW,2012-12-01 17:14:00,
2012-12-01 09:19:00,45.9,44.3,29.59,West,270,4.0,6.5,94,0.00,,,0.37,WUHU216HW,2012-12-01 17:19:00,
2012-12-01 09:24:00,45.9,44.3,29.59,WNW,293,1.8,6.7,94,0.00,,,0.37,WUHU216HW,2012-12-01 17:24:00,
2012-12-01 09:29:00,46.1,44.5,29.59,WSW,248,6.3,6.7,94,0.00,,,0.37,WUHU216HW,2012-12-01 17:29:00,
2012-12-01 09:34:00,46.3,44.6,29.59,SW,225,3.4,6.9,94,0.00,,,0.37,WUHU216HW,2012-12-01 17:34:00,
2012-12-01 09:39:00,46.3,44.6,29.59,SW,225,6.7,6.9,94,0.00,,,0.37,WUHU216HW,2012-12-01 17:39:00,
2012-12-01 09:44:00,46.3,44.6,29.59,SW,225,6.7,7.8,94,0.00,,,0.37,WUHU216HW,2012-12-01 17:44:00,
2012-12-01 09:49:00,46.4,44.8,29.59,WSW,248,2.9,7.8,94,0.00,,,0.37,WUHU216HW,2012-12-01 17:49:00,
2012-12-01 09:54:00,46.4,44.8,29.59,SW,225,7.2,9.2,94,0.00,,,0.37,WUHU216HW,2012-12-01 17:54:00,
2012-12-01 09:59:00,46.8,45.2,29.59,NNE,23,3.4,9.2,94,0.00,,,0.37,WUHU216HW,2012-12-01 17:59:00,
2012-12-01 10:04:00,46.8,44.9,29.59,South,180,5.6,8.7,93,0.00,,,0.37,WUHU216HW,2012-12-01 18:04:00,
2012-12-01 10:09:00,46.8,44.9,29.59,SSW,203,2.7,8.5,93,0.00,,,0.37,WUHU216HW,2012-12-01 18:09:00,
2012-12-01 10:14:00,47.0,45.1,29.59,SW,225,6.7,8.5,93,0.00,,,0.37,WUHU216HW,2012-12-01 18:14:00,
2012-12-01 10:19:00,47.0,45.1,29.59,SW,225,0.9,7.8,93,0.00,,,0.37,WUHU216HW,2012-12-01 18:19:00,
2012-12-01 10:24:00,47.0,45.1,29.59,SW,225,7.4,7.8,93,0.00,,,0.37,WUHU216HW,2012-12-01 18:24:00,
2012-12-01 10:29:00,47.2,45.3,29.59,WSW,248,1.6,8.5,93,0.00,,,0.37,WUHU216HW,2012-12-01 18:29:00,
2012-12-01 10:34:00,47.2,45.3,29.59,SW,225,2.5,8.5,93,0.00,,,0.37,WUHU216HW,2012-12-01 18:34:00,
2012-12-01 10:39:00,47.3,45.5,29.59,West,270,2.2,6.3,93,0.00,,,0.37,WUHU216HW,2012-12-01 18:39:00,
2012-12-01 10:44:00,47.5,45.4,29.59,SW,225,5.4,6.9,92,0.00,,,0.37,WUHU216HW,2012-12-01 18:44:00,
2012-12-01 10:49:00,47.7,45.5,29.58,WSW,248,4.5,6.9,92,0.00,,,0.37,WUHU216HW,2012-12-01 18:49:00,
2012-12-01 10:54:00,47.9,45.7,29.58,SW,225,6.9,7.6,92,0.00,,,0.37,WUHU216HW,2012-12-01 18:54:00,
2012-12-01 10:59:00,48.2,45.8,29.58,WSW,248,6.3,7.6,91,0.00,,,0.37,WUHU216HW,2012-12-01 18:59:00,
2012-12-01 11:04:00,48.6,46.2,29.58,SW,225,4.7,10.5,91,0.00,,,0.37,WUHU216HW,2012-12-01 19:04:00,
2012-12-01 11:09:00,48.8,46.0,29.59,SSW,203,6.5,10.5,90,0.00,,,0.37,WUHU216HW,2012-12-01 19:09:00,
2012-12-01 11:14:00,49.0,46.2,29.58,SSW,203,4.7,8.3,90,0.00,,,0.37,WUHU216HW,2012-12-01 19:14:00,
2012-12-01 11:19:00,49.0,46.2,29.58,SSW,203,8.3,10.7,90,0.00,,,0.37,WUHU216HW,2012-12-01 19:19:00,
2012-12-01 11:24:00,49.0,46.2,29.58,West,270,4.9,10.7,90,0.00,,,0.37,WUHU216HW,2012-12-01 19:24:00,
2012-12-01 11:29:00,49.0,45.9,29.58,SW,225,6.9,10.7,89,0.00,,,0.37,WUHU216HW,2012-12-01 19:29:00,
2012-12-01 11:34:00,49.0,45.9,29.58,ESE,113,9.8,11.4,89,0.00,,,0.37,WUHU216HW,2012-12-01 19:34:00,
2012-12-01 11:39:00,49.0,45.9,29.57,SW,225,4.0,11.4,89,0.00,,,0.37,WUHU216HW,2012-12-01 19:39:00,
2012-12-01 11:44:00,49.0,46.2,29.57,SW,225,4.0,11.2,90,0.00,,,0.37,WUHU216HW,2012-12-01 19:44:00,
2012-12-01 11:49:00,49.3,46.2,29.57,South,180,7.4,10.1,89,0.00,,,0.37,WUHU216HW,2012-12-01 19:49:00,
2012-12-01 11:54:00,49.5,46.1,29.57,SSE,158,6.3,11.4,88,0.00,,,0.37,WUHU216HW,2012-12-01 19:54:00,
2012-12-01 11:59:00,49.7,46.3,29.57,WSW,248,2.0,12.1,88,0.00,,,0.37,WUHU216HW,2012-12-01 19:59:00,
2012-12-01 12:04:00,49.7,46.3,29.57,WSW,248,9.8,12.1,88,0.00,,,0.37,WUHU216HW,2012-12-01 20:04:00,
2012-12-01 12:09:00,49.7,46.3,29.56,SSW,203,9.2,11.0,88,0.00,,,0.37,WUHU216HW,2012-12-01 20:09:00,
2012-12-01 12:14:00,49.9,45.8,29.56,West,270,12.1,12.1,86,0.00,,,0.37,WUHU216HW,2012-12-01 20:14:00,
2012-12-01 12:19:00,50.0,45.9,29.56,SSE,158,8.5,13.0,86,0.00,,,0.37,WUHU216HW,2012-12-01 20:19:00,
2012-12-01 12:24:00,50.0,45.9,29.56,SSW,203,1.8,13.0,86,0.00,,,0.37,WUHU216HW,2012-12-01 20:24:00,
2012-12-01 12:29:00,49.9,45.8,29.56,SW,225,11.4,11.6,86,0.00,,,0.37,WUHU216HW,2012-12-01 20:29:00,
2012-12-01 12:34:00,49.9,45.8,29.56,SSW,203,6.7,12.5,86,0.00,,,0.37,WUHU216HW,2012-12-01 20:34:00,
2012-12-01 12:39:00,49.9,45.8,29.56,SSE,158,2.7,12.5,86,0.00,,,0.37,WUHU216HW,2012-12-01 20:39:00,
2012-12-01 12:44:00,49.9,45.8,29.55,SW,225,6.9,13.2,86,0.00,,,0.37,WUHU216HW,2012-12-01 20:44:00,
2012-12-01 12:49:00,49.9,45.8,29.56,WSW,248,4.7,15.0,86,0.00,,,0.37,WUHU216HW,2012-12-01 20:49:00,
2012-12-01 12:54:00,50.0,45.9,29.56,South,180,5.1,15.0,86,0.00,,,0.37,WUHU216HW,2012-12-01 20:54:00,
2012-12-01 12:59:00,50.0,45.9,29.56,South,180,2.2,9.6,86,0.00,,,0.37,WUHU216HW,2012-12-01 20:59:00,
2012-12-01 13:04:00,50.0,45.9,29.56,SW,225,6.3,9.8,86,0.00,,,0.37,WUHU216HW,2012-12-01 21:04:00,
2012-12-01 13:09:00,50.4,46.3,29.56,West,270,4.3,10.1,86,0.00,,,0.37,WUHU216HW,2012-12-01 21:09:00,
2012-12-01 13:14:00,50.6,46.4,29.56,WSW,248,4.7,14.3,86,0.00,,,0.37,WUHU216HW,2012-12-01 21:14:00,
2012-12-01 13:19:00,50.8,46.6,29.56,SW,225,6.3,14.3,86,0.00,,,0.37,WUHU216HW,2012-12-01 21:19:00,
2012-12-01 13:24:00,51.1,46.7,29.55,SW,225,8.7,10.1,85,0.00,,,0.37,WUHU216HW,2012-12-01 21:24:00,
2012-12-01 13:29:00,51.1,46.7,29.56,SW,225,6.9,13.4,85,0.00,,,0.37,WUHU216HW,2012-12-01 21:29:00,
2012-12-01 13:34:00,51.3,46.6,29.56,WSW,248,7.2,18.3,84,0.00,,,0.37,WUHU216HW,2012-12-01 21:34:00,
2012-12-01 13:39:00,50.9,46.3,29.56,WSW,248,11.4,18.3,84,0.00,,,0.37,WUHU216HW,2012-12-01 21:39:00,
2012-12-01 13:44:00,50.8,46.1,29.56,South,180,7.6,11.4,84,0.00,,,0.37,WUHU216HW,2012-12-01 21:44:00,
2012-12-01 13:49:00,50.8,46.4,29.55,SW,225,8.1,11.4,85,0.00,,,0.37,WUHU216HW,2012-12-01 21:49:00,
2012-12-01 13:54:00,50.8,46.4,29.55,SW,225,7.2,8.9,85,0.00,,,0.37,WUHU216HW,2012-12-01 21:54:00,
2012-12-01 13:59:00,50.8,46.1,29.55,SSW,203,12.8,13.0,84,0.00,,,0.37,WUHU216HW,2012-12-01 21:59:00,
2012-12-01 14:04:00,50.6,46.2,29.55,SSW,203,3.1,15.7,85,0.00,,,0.37,WUHU216HW,2012-12-01 22:04:00,
2012-12-01 14:09:00,50.4,46.0,29.55,SSW,203,6.9,15.7,85,0.00,,,0.37,WUHU216HW,2012-12-01 22:09:00,
2012-12-01 14:14:00,50.2,45.8,29.55,SE,135,4.7,12.1,85,0.00,,,0.37,WUHU216HW,2012-12-01 22:14:00,
2012-12-01 14:19:00,50.0,45.9,29.55,West,270,4.3,10.5,86,0.00,,,0.37,WUHU216HW,2012-12-01 22:19:00,
2012-12-01 14:24:00,50.0,45.9,29.55,SSW,203,9.4,14.3,86,0.00,,,0.37,WUHU216HW,2012-12-01 22:24:00,
2012-12-01 14:29:00,50.0,45.9,29.55,SSW,203,9.4,14.3,86,0.00,,,0.37,WUHU216HW,2012-12-01 22:29:00,
2012-12-01 14:34:00,49.9,45.8,29.55,SW,225,6.5,9.4,86,0.00,,,0.37,WUHU216HW,2012-12-01 22:34:00,
2012-12-01 14:39:00,49.9,45.8,29.55,WSW,248,6.0,10.5,86,0.00,,,0.37,WUHU216HW,2012-12-01 22:39:00,
2012-12-01 14:44:00,49.9,45.8,29.55,WSW,248,10.5,10.5,86,0.00,,,0.37,WUHU216HW,2012-12-01 22:44:00,
2012-12-01 14:49:00,49.9,45.8,29.55,SSW,203,5.6,13.4,86,0.00,,,0.37,WUHU216HW,2012-12-01 22:49:00,
2012-12-01 14:54:00,49.9,45.8,29.55,SW,225,7.8,13.4,86,0.00,,,0.37,WUHU216HW,2012-12-01 22:54:00,
2012-12-01 14:59:00,49.7,45.9,29.55,WSW,248,2.5,8.9,87,0.00,,,0.37,WUHU216HW,2012-12-01 22:59:00,
2012-12-01 15:04:00,49.3,45.3,29.55,WSW,248,4.7,8.9,86,0.00,,,0.37,WUHU216HW,2012-12-01 23:04:00,
2012-12-01 15:09:00,49.1,45.4,29.55,WSW,248,7.4,7.4,87,0.01,,,0.38,WUHU216HW,2012-12-01 23:09:00,
2012-12-01 15:14:00,49.0,45.3,29.55,SW,225,3.4,7.4,87,0.01,,,0.38,WUHU216HW,2012-12-01 23:14:00,
2012-12-01 15:19:00,48.8,45.4,29.55,SSW,203,1.1,7.6,88,0.02,,,0.39,WUHU216HW,2012-12-01 23:19:00,
2012-12-01 15:24:00,48.6,45.2,29.55,SW,225,3.8,7.6,88,0.02,,,0.39,WUHU216HW,2012-12-01 23:24:00,
2012-12-01 15:29:00,48.6,45.2,29.55,WSW,248,2.0,4.7,88,0.02,,,0.39,WUHU216HW,2012-12-01 23:29:00,
2012-12-01 15:34:00,48.2,45.2,29.55,WSW,248,2.9,3.8,89,0.02,,,0.39,WUHU216HW,2012-12-01 23:34:00,
2012-12-01 15:39:00,48.2,45.2,29.55,West,270,6.7,6.7,89,0.02,,,0.39,WUHU216HW,2012-12-01 23:39:00,
2012-12-01 15:44:00,48.1,45.4,29.55,WSW,248,4.9,6.9,90,0.02,,,0.39,WUHU216HW,2012-12-01 23:44:00,
2012-12-01 15:49:00,47.9,45.2,29.55,WNW,293,3.6,6.9,90,0.03,,,0.40,WUHU216HW,2012-12-01 23:49:00,
2012-12-01 15:54:00,47.9,45.2,29.54,WSW,248,1.6,6.7,90,0.03,,,0.40,WUHU216HW,2012-12-01 23:54:00,
2012-12-01 15:59:00,47.9,45.5,29.54,WSW,248,2.9,6.3,91,0.03,,,0.40,WUHU216HW,2012-12-01 23:59:00,
2012-12-01 16:04:00,47.9,45.5,29.54,WSW,248,4.3,4.9,91,0.02,,,0.40,WUHU216HW,2012-12-02 00:04:00,
2012-12-01 16:09:00,47.7,45.3,29.54,WSW,248,1.3,4.9,91,0.02,,,0.40,WUHU216HW,2012-12-02 00:09:00,
2012-12-01 16:14:00,47.5,45.1,29.53,SW,225,3.4,6.7,91,0.02,,,0.40,WUHU216HW,2012-12-02 00:14:00,
2012-12-01 16:19:00,47.5,45.1,29.53,SW,225,1.1,6.7,91,0.01,,,0.40,WUHU216HW,2012-12-02 00:19:00,
2012-12-01 16:24:00,47.3,44.9,29.53,WSW,248,1.8,5.4,91,0.01,,,0.40,WUHU216HW,2012-12-02 00:24:00,
2012-12-01 16:29:00,47.3,44.9,29.53,WSW,248,5.8,5.8,91,0.01,,,0.40,WUHU216HW,2012-12-02 00:29:00,
2012-12-01 16:34:00,47.2,44.7,29.53,WSW,248,2.5,5.8,91,0.01,,,0.40,WUHU216HW,2012-12-02 00:34:00,
2012-12-01 16:39:00,47.2,45.0,29.53,WSW,248,1.3,5.8,92,0.01,,,0.40,WUHU216HW,2012-12-02 00:39:00,
2012-12-01 16:44:00,47.2,45.0,29.53,SSW,203,3.8,5.1,92,0.00,,,0.40,WUHU216HW,2012-12-02 00:44:00,
2012-12-01 16:49:00,47.2,45.0,29.52,West,270,4.0,5.1,92,0.00,,,0.40,WUHU216HW,2012-12-02 00:49:00,
2012-12-01 16:54:00,47.0,44.8,29.52,WSW,248,3.6,5.1,92,0.00,,,0.40,WUHU216HW,2012-12-02 00:54:00,
2012-12-01 16:59:00,47.0,44.8,29.53,SSW,203,2.9,5.6,92,0.00,,,0.40,WUHU216HW,2012-12-02 00:59:00,
2012-12-01 17:04:00,47.0,44.8,29.52,SW,225,1.3,5.6,92,0.00,,,0.40,WUHU216HW,2012-12-02 01:04:00,
2012-12-01 17:09:00,47.0,44.8,29.52,SSW,203,4.0,4.0,92,0.00,,,0.40,WUHU216HW,2012-12-02 01:09:00,
2012-12-01 17:14:00,46.8,44.6,29.51,WSW,248,2.9,6.0,92,0.00,,,0.40,WUHU216HW,2012-12-02 01:14:00,
2012-12-01 17:19:00,46.8,44.6,29.52,WSW,248,3.4,6.0,92,0.00,,,0.40,WUHU216HW,2012-12-02 01:19:00,
2012-12-01 17:24:00,46.8,44.6,29.51,SSW,203,2.7,6.3,92,0.00,,,0.40,WUHU216HW,2012-12-02 01:24:00,
2012-12-01 17:29:00,47.0,44.6,29.51,SW,225,3.4,6.3,91,0.00,,,0.40,WUHU216HW,2012-12-02 01:29:00,
2012-12-01 17:34:00,47.0,44.6,29.51,WSW,248,4.7,5.8,91,0.00,,,0.40,WUHU216HW,2012-12-02 01:34:00,
2012-12-01 17:39:00,47.2,44.7,29.51,SSW,203,2.5,7.6,91,0.00,,,0.40,WUHU216HW,2012-12-02 01:39:00,
2012-12-01 17:44:00,47.2,44.7,29.51,SW,225,1.8,7.6,91,0.00,,,0.40,WUHU216HW,2012-12-02 01:44:00,
2012-12-01 17:49:00,47.2,44.7,29.51,WSW,248,4.7,7.2,91,0.00,,,0.40,WUHU216HW,2012-12-02 01:49:00,
2012-12-01 17:54:00,47.3,44.6,29.51,South,180,2.0,7.2,90,0.00,,,0.40,WUHU216HW,2012-12-02 01:54:00,
2012-12-01 17:59:00,47.3,44.6,29.50,SW,225,4.0,10.5,90,0.00,,,0.40,WUHU216HW,2012-12-02 01:59:00,
2012-12-01 18:04:00,47.3,44.4,29.50,SSW,203,5.4,10.5,89,0.00,,,0.40,WUHU216HW,2012-12-02 02:04:00,
2012-12-01 18:09:00,47.5,44.5,29.50,SW,225,2.5,10.5,89,0.00,,,0.40,WUHU216HW,2012-12-02 02:09:00,
2012-12-01 18:14:00,47.5,44.5,29.49,South,180,3.8,10.5,89,0.00,,,0.40,WUHU216HW,2012-12-02 02:14:00,
2012-12-01 18:19:00,47.5,44.5,29.49,WSW,248,2.9,6.9,89,0.00,,,0.40,WUHU216HW,2012-12-02 02:19:00,
2012-12-01 19:00:00,47.2,43.8,29.45,SW,225,0.9,0.9,88,0.00,,,0.40,WUHU216HW,2012-12-02 03:00:00,
2012-12-01 19:05:00,47.2,43.8,29.46,SW,225,1.1,4.3,88,0.00,,,0.40,WUHU216HW,2012-12-02 03:05:00,
2012-12-01 19:10:00,47.2,43.8,29.46,SW,225,2.5,4.3,88,0.00,,,0.40,WUHU216HW,2012-12-02 03:10:00,
2012-12-01 19:15:00,47.2,43.8,29.46,SSW,203,1.1,4.3,88,0.00,,,0.40,WUHU216HW,2012-12-02 03:15:00,
2012-12-01 19:20:00,47.2,43.8,29.45,WSW,248,1.3,4.3,88,0.00,,,0.40,WUHU216HW,2012-12-02 03:20:00,
2012-12-01 19:25:00,47.2,44.2,29.45,SSW,203,1.8,3.8,89,0.00,,,0.40,WUHU216HW,2012-12-02 03:25:00,
2012-12-01 19:30:00,47.0,44.0,29.45,NW,315,0.4,3.4,89,0.00,,,0.40,WUHU216HW,2012-12-02 03:30:00,
2012-12-01 19:35:00,47.0,44.0,29.45,South,180,0.4,3.6,89,0.00,,,0.40,WUHU216HW,2012-12-02 03:35:00,
2012-12-01 19:40:00,47.0,44.0,29.45,SW,225,1.8,3.6,89,0.00,,,0.40,WUHU216HW,2012-12-02 03:40:00,
2012-12-01 19:45:00,47.0,44.0,29.45,SW,225,0.0,2.0,89,0.00,,,0.40,WUHU216HW,2012-12-02 03:45:00,
2012-12-01 19:50:00,46.8,43.8,29.44,SW,225,1.8,5.1,89,0.00,,,0.40,WUHU216HW,2012-12-02 03:50:00,
2012-12-01 19:55:00,46.8,43.8,29.44,SSW,203,1.1,5.1,89,0.00,,,0.40,WUHU216HW,2012-12-02 03:55:00,
2012-12-01 20:00:00,46.8,43.8,29.43,WSW,248,0.2,3.1,89,0.00,,,0.40,WUHU216HW,2012-12-02 04:00:00,
2012-12-01 20:05:00,46.8,43.8,29.42,West,270,1.1,2.7,89,0.00,,,0.40,WUHU216HW,2012-12-02 04:05:00,
2012-12-01 20:10:00,46.8,43.8,29.42,WSW,248,1.1,3.6,89,0.00,,,0.40,WUHU216HW,2012-12-02 04:10:00,
2012-12-01 20:15:00,46.8,43.8,29.42,SW,225,4.0,4.0,89,0.00,,,0.40,WUHU216HW,2012-12-02 04:15:00,
2012-12-01 20:20:00,46.8,43.8,29.42,SW,225,0.9,4.0,89,0.00,,,0.40,WUHU216HW,2012-12-02 04:20:00,
2012-12-01 20:25:00,46.8,43.8,29.42,SW,225,1.1,4.0,89,0.01,,,0.41,WUHU216HW,2012-12-02 04:25:00,
2012-12-01 20:30:00,46.8,44.1,29.42,SW,225,1.3,3.8,90,0.01,,,0.41,WUHU216HW,2012-12-02 04:30:00,
2012-12-01 20:35:00,46.8,44.1,29.42,WSW,248,0.0,2.7,90,0.01,,,0.41,WUHU216HW,2012-12-02 04:35:00,
2012-12-01 20:40:00,46.6,43.9,29.42,WSW,248,1.1,4.0,90,0.01,,,0.41,WUHU216HW,2012-12-02 04:40:00,
2012-12-01 20:45:00,46.6,43.9,29.42,WSW,248,1.6,4.0,90,0.01,,,0.41,WUHU216HW,2012-12-02 04:45:00,
2012-12-01 20:50:00,46.6,43.9,29.42,SSE,158,1.1,2.5,90,0.01,,,0.41,WUHU216HW,2012-12-02 04:50:00,
2012-12-01 20:55:00,46.4,43.7,29.41,West,270,2.0,4.0,90,0.01,,,0.41,WUHU216HW,2012-12-02 04:55:00,
2012-12-01 21:00:00,46.4,43.7,29.42,SW,225,2.5,4.0,90,0.01,,,0.41,WUHU216HW,2012-12-02 05:00:00,
2012-12-01 21:05:00,46.4,43.7,29.42,WSW,248,2.2,4.0,90,0.01,,,0.41,WUHU216HW,2012-12-02 05:05:00,
2012-12-01 21:10:00,46.4,43.7,29.41,SSE,158,3.4,6.0,90,0.01,,,0.41,WUHU216HW,2012-12-02 05:10:00,
2012-12-01 21:15:00,46.6,43.9,29.41,South,180,0.9,6.0,90,0.01,,,0.41,WUHU216HW,2012-12-02 05:15:00,
2012-12-01 21:20:00,46.6,43.9,29.40,South,180,2.0,4.3,90,0.00,,,0.41,WUHU216HW,2012-12-02 05:20:00,
2012-12-01 21:25:00,46.8,44.1,29.40,NW,315,0.4,3.8,90,0.00,,,0.41,WUHU216HW,2012-12-02 05:25:00,
2012-12-01 21:30:00,46.8,43.8,29.39,NE,45,1.1,3.1,89,0.00,,,0.41,WUHU216HW,2012-12-02 05:30:00,
2012-12-01 21:35:00,46.6,43.7,29.38,SSE,158,2.2,3.6,89,0.00,,,0.41,WUHU216HW,2012-12-02 05:35:00,
2012-12-01 21:40:00,46.8,43.8,29.39,SW,225,1.6,6.0,89,0.00,,,0.41,WUHU216HW,2012-12-02 05:40:00,
2012-12-01 21:45:00,46.6,43.7,29.39,SW,225,1.8,6.0,89,0.00,,,0.41,WUHU216HW,2012-12-02 05:45:00,
2012-12-01 21:50:00,46.8,43.8,29.38,WSW,248,0.7,4.0,89,0.00,,,0.41,WUHU216HW,2012-12-02 05:50:00,
2012-12-01 21:55:00,46.8,43.8,29.37,East,90,1.1,4.3,89,0.00,,,0.41,WUHU216HW,2012-12-02 05:55:00,
2012-12-01 22:00:00,46.6,43.7,29.37,SW,225,0.7,4.3,89,0.00,,,0.41,WUHU216HW,2012-12-02 06:00:00,
2012-12-01 22:05:00,46.6,43.7,29.36,SW,225,0.7,3.8,89,0.00,,,0.41,WUHU216HW,2012-12-02 06:05:00,
2012-12-01 22:10:00,46.6,43.7,29.36,WSW,248,1.6,3.1,89,0.00,,,0.41,WUHU216HW,2012-12-02 06:10:00,
2012-12-01 22:15:00,46.8,43.8,29.35,ENE,68,2.0,3.1,89,0.00,,,0.41,WUHU216HW,2012-12-02 06:15:00,
2012-12-01 22:20:00,46.8,43.5,29.34,NE,45,2.2,3.1,88,0.00,,,0.41,WUHU216HW,2012-12-02 06:20:00,
2012-12-01 22:25:00,46.8,43.5,29.34,NNW,338,0.4,2.5,88,0.00,,,0.41,WUHU216HW,2012-12-02 06:25:00,
2012-12-01 22:30:00,46.8,43.5,29.34,West,270,0.4,2.7,88,0.00,,,0.41,WUHU216HW,2012-12-02 06:30:00,
2012-12-01 22:35:00,47.0,43.7,29.34,NNE,23,0.4,2.7,88,0.00,,,0.41,WUHU216HW,2012-12-02 06:35:00,
2012-12-01 22:40:00,47.0,43.7,29.33,WSW,248,1.3,2.7,88,0.00,,,0.41,WUHU216HW,2012-12-02 06:40:00,
2012-12-01 22:45:00,47.0,43.7,29.32,SSE,158,0.4,2.7,88,0.00,,,0.41,WUHU216HW,2012-12-02 06:45:00,
2012-12-01 22:50:00,46.8,43.5,29.32,West,270,0.4,4.5,88,0.00,,,0.41,WUHU216HW,2012-12-02 06:50:00,
2012-12-01 22:55:00,46.8,43.5,29.31,ESE,113,0.9,4.5,88,0.00,,,0.41,WUHU216HW,2012-12-02 06:55:00,
2012-12-01 23:00:00,46.8,43.5,29.31,ENE,68,1.6,2.5,88,0.00,,,0.41,WUHU216HW,2012-12-02 07:00:00,
2012-12-01 23:05:00,46.8,43.5,29.30,NNE,23,0.0,3.8,88,0.00,,,0.41,WUHU216HW,2012-12-02 07:05:00,
2012-12-01 23:10:00,46.8,43.5,29.30,East,90,0.0,3.8,88,0.00,,,0.41,WUHU216HW,2012-12-02 07:10:00,
2012-12-01 23:15:00,46.6,43.3,29.29,SW,225,0.7,2.0,88,0.00,,,0.41,WUHU216HW,2012-12-02 07:15:00,
2012-12-01 23:20:00,46.4,43.5,29.28,NE,45,1.1,2.5,89,0.00,,,0.41,WUHU216HW,2012-12-02 07:20:00,
2012-12-01 23:25:00,46.4,43.5,29.28,NNE,23,0.0,2.7,89,0.00,,,0.41,WUHU216HW,2012-12-02 07:25:00,
2012-12-01 23:30:00,46.4,43.5,29.28,ENE,68,1.1,2.7,89,0.00,,,0.41,WUHU216HW,2012-12-02 07:30:00,
2012-12-01 23:35:00,46.3,43.3,29.27,ENE,68,0.0,1.1,89,0.00,,,0.41,WUHU216HW,2012-12-02 07:35:00,
2012-12-01 23:40:00,46.1,43.4,29.27,ENE,68,0.4,1.6,90,0.00,,,0.41,WUHU216HW,2012-12-02 07:40:00,
2012-12-01 23:45:00,46.1,43.4,29.26,ENE,68,0.4,2.0,90,0.00,,,0.41,WUHU216HW,2012-12-02 07:45:00,
2012-12-01 23:50:00,46.1,43.4,29.25,NE,45,0.4,2.0,90,0.01,,,0.42,WUHU216HW,2012-12-02 07:50:00,
2012-12-01 23:55:00,45.9,43.2,29.24,ENE,68,1.1,1.8,90,0.01,,,0.42,WUHU216HW,2012-12-02 07:55:00,